Beaufort, NC

5:46 AM EDT on April 27, 2017 (GMT -0400)
Smith

Weather History for KMRH - February, 2014

Change the Weather History Date:

Tuesday, February 25, 2014

  Actual Average Record
Temperature  
Mean Temperature 52 °F -  
Max Temperature 64 °F 59 °F 72 °F (2017)
Min Temperature 41 °F 38 °F 13 °F (1967)
Degree Days  
Heating Degree Days 12    
Growing Degree Days 2 (Base 50)    
Moisture  
Dew Point 39 °F    
Average Humidity 68    
Maximum Humidity 93    
Minimum Humidity 50    
Precipitation  
Precipitation 0.00 in - - ()
Sea Level Pressure  
Sea Level Pressure 30.00 in    
Wind  
Wind Speed 6 mph (NE)    
Max Wind Speed 15 mph    
Max Gust Speed 23 mph    
Visibility 10 miles    
Events      
Averages and records for this station are not official NWS values.
T = Trace of Precipitation, MM = Missing Value Source: NWS Daily Summary

Daily Weather History Graph

Daily Weather History Graph

Search for Another Location

Airport or City:

Trip Planner

Search our weather history database for the weather conditions in past years. The results will help you decide how hot, cold, wet, or windy it might be!

Date:

Astronomy

Feb. 25, 2014 Rise Set
Actual Time 6:40 AM EST 5:58 PM EST
Civil Twilight 6:15 AM EST 6:24 PM EST
Nautical Twilight 5:46 AM EST 6:53 PM EST
Astronomical Twilight 5:16 AM EST 7:22 PM EST
Moon 3:27 AM EST (2/25) 2:08 PM EST (2/25)
Length of Visible Light 12h 09m
Length of Day
11h 18m
Waning Crescent, 18% of the Moon is Illuminated
Feb 25
Waning Crescent
Mar 1
New
Mar 8
First Quarter
Mar 16
Full
Mar 23
Last Quarter

Hourly Weather History & Observations

Time (EST) Temp. Windchill Dew Point Humidity Pressure Visibility Wind Dir Wind Speed Gust Speed Precip Events Conditions
12:58 AM 42.1 °F - 39.9 °F 92% 30.12 in 8.0 mi Calm Calm - N/A   Clear
1:58 AM 44.1 °F 41.5 °F 37.9 °F 79% 30.12 in 10.0 mi NNE 4.6 mph - N/A   Clear
2:58 AM 46.0 °F 43.9 °F 32.0 °F 58% 30.09 in 10.0 mi NNE 4.6 mph - N/A   Clear
3:58 AM 44.1 °F 41.5 °F 33.1 °F 65% 30.08 in 10.0 mi NNE 4.6 mph - N/A   Clear
4:58 AM 41.0 °F 39.0 °F 34.0 °F 76% 30.07 in 10.0 mi ENE 3.5 mph - N/A   Clear
5:58 AM 41.0 °F 38.0 °F 35.1 °F 79% 30.06 in 10.0 mi NNE 4.6 mph - N/A   Clear
6:58 AM 41.0 °F 38.0 °F 39.0 °F 93% 30.06 in 10.0 mi North 4.6 mph - N/A   Clear
7:58 AM 48.0 °F - 42.1 °F 80% 30.06 in 10.0 mi NE 6.9 mph - N/A   Clear
8:58 AM 52.0 °F - 43.0 °F 71% 30.05 in 10.0 mi ENE 6.9 mph - N/A   Clear
9:58 AM 57.9 °F - 45.0 °F 62% 30.04 in 10.0 mi NE 5.8 mph - N/A   Clear
10:58 AM 61.0 °F - 45.0 °F 56% 30.01 in 10.0 mi ESE 3.5 mph - N/A   Clear
11:58 AM 64.0 °F - 45.0 °F 50% 29.98 in 10.0 mi SW 6.9 mph - N/A   Clear
12:58 PM 64.0 °F - 46.0 °F 52% 29.94 in 10.0 mi SSW 9.2 mph - N/A   Clear
1:58 PM 63.0 °F - 46.9 °F 56% 29.91 in 10.0 mi SW 10.4 mph - N/A   Partly Cloudy
2:58 PM 62.1 °F - 48.9 °F 62% 29.88 in 10.0 mi SW 9.2 mph - N/A   Mostly Cloudy
3:58 PM 61.0 °F - 52.0 °F 72% 29.87 in 10.0 mi SW 12.7 mph - N/A   Mostly Cloudy
4:58 PM 54.0 °F - 39.9 °F 59% 29.91 in 10.0 mi NNE 12.7 mph - N/A   Overcast
5:58 PM 50.0 °F - 37.9 °F 63% 29.94 in 10.0 mi NNE 12.7 mph 23.0 mph N/A   Mostly Cloudy
6:58 PM 46.9 °F - 35.1 °F 63% 29.97 in 10.0 mi NNE 15.0 mph 23.0 mph N/A   Clear
7:58 PM 46.0 °F 40.6 °F 30.9 °F 56% 29.97 in 10.0 mi NNE 11.5 mph - N/A   Clear
8:58 PM 44.1 °F 39.0 °F 32.0 °F 63% 29.97 in 10.0 mi NE 9.2 mph - N/A   Clear
9:58 PM 43.0 °F 38.8 °F 34.0 °F 71% 29.99 in 10.0 mi NE 6.9 mph - N/A   Clear
10:58 PM 42.1 °F 37.1 °F 34.0 °F 73% 30.01 in 10.0 mi NE 8.1 mph - N/A   Clear
11:58 PM 41.0 °F 37.1 °F 34.0 °F 76% 29.99 in 10.0 mi NNE 5.8 mph - N/A   Clear